This is the latest recevied weather packets stored in our database for station/object K1AWR. If no packets are shown the sender has not sent any weather packets the latest 10 day(s).
| Time | Temp. | Humidity | Pressure | Rain* | Wind** | Luminosity | Snow |
|---|---|---|---|---|---|---|---|
| 1788614426 | 21.11° C | 75% | 1011.1 hPa | 0 mm | - | 46 W/m² | - |
| 1788614121 | 20.56° C | 77% | 1011.3 hPa | 0 mm | - | 87 W/m² | - |
| 1788613816 | 20.56° C | 76% | 1011.3 hPa | 0 mm | - | 83 W/m² | - |
| 1788613515 | 20.56° C | 77% | 1011.2 hPa | 0 mm | - | 29 W/m² | - |
| 1788613211 | 20° C | 76% | 1011.2 hPa | 0 mm | - | 25 W/m² | - |
| 1788612905 | 20° C | 76% | 1011.2 hPa | 0 mm | - | 194 W/m² | - |
| 1788612601 | 20.56° C | 76% | 1011.3 hPa | 0 mm | - | 263 W/m² | - |
| 1788612297 | 18.89° C | 81% | 1011.2 hPa | 0 mm | - | 145 W/m² | - |
| 1788611992 | 18.89° C | 81% | 1011.2 hPa | 0 mm | - | 145 W/m² | - |
| 1788611688 | 18.89° C | 81% | 1011.4 hPa | 0 mm | - | 145 W/m² | - |
| 1788611389 | 18.89° C | 81% | 1011.4 hPa | 0 mm | - | 145 W/m² | - |
| 1788611089 | 18.89° C | 81% | 1011.5 hPa | 0 mm | - | 145 W/m² | - |
| 1788610784 | 18.89° C | 81% | 1011.5 hPa | 0 mm | - | 145 W/m² | - |
| 1788610479 | 18.89° C | 81% | 1011.2 hPa | 0 mm | - | 145 W/m² | - |
| 1788610179 | 18.89° C | 81% | 1011.3 hPa | 0 mm | - | 145 W/m² | - |
| 1788609873 | 16.11° C | 96% | 1011.2 hPa | 0 mm | - | 14 W/m² | - |
| 1788609568 | 16.11° C | 96% | 1011.1 hPa | 0 mm | - | 14 W/m² | - |
| 1788609267 | 16.11° C | 96% | 1011.1 hPa | 0 mm | - | 14 W/m² | - |
| 1788608963 | 16.11° C | 96% | 1011.1 hPa | 0 mm | - | 14 W/m² | - |
| 1788608662 | 16.11° C | 96% | 1011 hPa | 0 mm | - | 14 W/m² | - |
| 1788608361 | 16.11° C | 96% | 1011 hPa | 0 mm | - | 14 W/m² | - |
| 1788608057 | 16.11° C | 96% | 1011.1 hPa | 0 mm | - | 14 W/m² | - |
| 1788607752 | 16.11° C | 96% | 1010.9 hPa | 0 mm | - | 14 W/m² | - |
| 1788607448 | 15.56° C | 97% | 1010.8 hPa | 0 mm | - | 13 W/m² | - |
| 1788607143 | 15° C | 97% | 1010.9 hPa | 0 mm | - | 12 W/m² | - |
* Rain latest hour (hover to see other rain measurements)
** Current wind speed in m/s (hover to see current wind gust speed)